カタログに戻る

ONEWEB-0588

運用中通信PO
NORAD 55153·PAYLOAD·🇬🇧 United Kingdom

打ち上げ Jan 10, 2023 から Cape Canaveral Space Force Station

Loading…

次のパス (今後24時間)

TLE

最新Source: CelesTrak SupGP

元期: Sep 14, 2026, 10:13 UTC

1 55153C 23004P   26257.42619630 -.00000524  00000+0 -13296-2 0  2573
2 55153  87.9155 317.7344 0001692 113.2375 300.5578 13.18683138    16

AllMySatでONEWEB-0588をリアルタイム追跡

Download on the App Store